Gwinn, MI

6:29 AM EDT on March 29, 2017 (GMT -0400)
Sawyer International

Weather History for KSAW - August, 2013

Change the Weather History Date:

Thursday, August 15, 2013

  Actual Average (KESC) Record (KESC)
Temperature  
Mean Temperature 58 °F -  
Max Temperature 73 °F 73 °F 89 °F (2003)
Min Temperature 42 °F 58 °F 42 °F (1960)
Degree Days  
Heating Degree Days 8    
Growing Degree Days 8 (Base 50)    
Moisture  
Dew Point 45 °F    
Average Humidity 73    
Maximum Humidity 90    
Minimum Humidity 38    
Precipitation  
Precipitation 0.00 in - - ()
Sea Level Pressure  
Sea Level Pressure 30.08 in    
Wind  
Wind Speed 1 mph (NNE)    
Max Wind Speed 10 mph    
Max Gust Speed 16 mph    
Visibility 10 miles    
Events      
Averages and records for this station are not official NWS values.
T = Trace of Precipitation, MM = Missing Value Source: NWS Daily Summary

Daily Weather History Graph

Daily Weather History Graph

Search for Another Location

Airport or City:

Trip Planner

Search our weather history database for the weather conditions in past years. The results will help you decide how hot, cold, wet, or windy it might be!

Date:

Astronomy

Aug. 15, 2013 Rise Set
Actual Time 6:48 AM EDT 8:58 PM EDT
Civil Twilight 6:15 AM EDT 9:31 PM EDT
Nautical Twilight 5:34 AM EDT 10:11 PM EDT
Astronomical Twilight 4:49 AM EDT 10:56 PM EDT
Moon 4:21 PM EDT (8/15) 12:52 AM EDT (8/15)
Length of Visible Light 15h 15m
Length of Day
14h 09m
Waxing Gibbous, 64% of the Moon is Illuminated
Aug 15
Waxing Gibbous
Aug 20
Full
Aug 28
Last Quarter
Sep 5
New
Sep 12
First Quarter

Hourly Weather History & Observations

Time (EDT) Temp. Dew Point Humidity Pressure Visibility Wind Dir Wind Speed Gust Speed Precip Events Conditions
12:15 AM 47.3 °F 43.7 °F 87% 30.10 in 10.0 mi Calm Calm - N/A   Clear
12:36 AM 46.4 °F 41.5 °F 83% 30.10 in 10.0 mi Calm Calm - N/A   Clear
12:55 AM 46.4 °F 42.6 °F 87% 30.10 in 10.0 mi Calm Calm - N/A   Clear
1:16 AM 45.5 °F 40.8 °F 84% 30.10 in 10.0 mi Calm Calm - N/A   Clear
1:35 AM 45.1 °F 41.7 °F 88% 30.09 in 10.0 mi Calm Calm - N/A   Clear
1:55 AM 43.9 °F 40.6 °F 88% 30.09 in 10.0 mi Calm Calm - N/A   Clear
2:16 AM 43.5 °F 40.1 °F 88% 30.09 in 10.0 mi Calm Calm - N/A   Clear
2:35 AM 43.7 °F 39.9 °F 87% 30.08 in 10.0 mi Calm Calm - N/A   Clear
2:56 AM 44.8 °F 41.5 °F 88% 30.08 in 10.0 mi Calm Calm - N/A   Clear
3:15 AM 43.3 °F 39.7 °F 87% 30.08 in 10.0 mi Calm Calm - N/A   Clear
3:35 AM 44.6 °F 41.7 °F 90% 30.07 in 10.0 mi Calm Calm - N/A   Clear
3:56 AM 44.1 °F 40.6 °F 88% 30.08 in 10.0 mi Calm Calm - N/A   Clear
4:15 AM 44.1 °F 40.8 °F 88% 30.07 in 10.0 mi Calm Calm - N/A   Clear
4:36 AM 43.7 °F 39.7 °F 86% 30.07 in 10.0 mi Calm Calm - N/A   Clear
4:55 AM 43.3 °F 40.3 °F 89% 30.07 in 10.0 mi Calm Calm - N/A   Clear
5:16 AM 42.8 °F 39.2 °F 87% 30.07 in 10.0 mi Calm Calm - N/A   Clear
5:35 AM 42.8 °F 39.0 °F 86% 30.08 in 10.0 mi Calm Calm - N/A   Clear
5:55 AM 42.3 °F 39.2 °F 89% 30.08 in 10.0 mi Calm Calm - N/A   Clear
6:55 AM 42.8 °F 39.2 °F 87% 30.08 in 10.0 mi Calm Calm - N/A   Clear
7:55 AM 48.2 °F 42.8 °F 82% 30.09 in 10.0 mi Calm Calm - N/A   Clear
8:55 AM 55.4 °F 46.4 °F 72% 30.09 in 10.0 mi West 4.6 mph - N/A   Clear
9:50 AM 60.8 °F 48.2 °F 63% 30.09 in 10.0 mi Calm Calm - N/A   Clear
10:55 AM 68.0 °F 50.0 °F 52% 30.08 in 10.0 mi NW 5.8 mph - N/A   Clear
11:50 AM 69.8 °F 46.4 °F 43% 30.08 in 10.0 mi WNW 6.9 mph - N/A   Clear
1:50 PM 71.6 °F 46.4 °F 41% 30.06 in 10.0 mi North 6.9 mph - N/A   Mostly Cloudy
2:50 PM 73.4 °F 46.4 °F 38% 30.06 in 10.0 mi NNW 8.1 mph 16.1 mph N/A   Scattered Clouds
3:50 PM 73.4 °F 50.0 °F 44% 30.06 in 10.0 mi ENE 5.8 mph - N/A   Scattered Clouds
4:50 PM 73.4 °F 48.2 °F 41% 30.06 in 10.0 mi NE 10.4 mph - N/A   Scattered Clouds
5:50 PM 71.6 °F 48.2 °F 43% 30.07 in 10.0 mi ENE 9.2 mph - N/A   Partly Cloudy
6:50 PM 71.6 °F 50.0 °F 46% 30.07 in 10.0 mi ENE 8.1 mph - N/A   Partly Cloudy
7:50 PM 69.8 °F 51.8 °F 53% 30.08 in 10.0 mi East 4.6 mph - N/A   Partly Cloudy
8:50 PM 66.2 °F 50.0 °F 56% 30.09 in 10.0 mi Calm Calm - N/A   Clear
9:45 PM 62.6 °F 51.8 °F 68% 30.10 in 10.0 mi Calm Calm - N/A   Clear
10:16 PM 60.1 °F 50.5 °F 71% 30.10 in 10.0 mi Calm Calm - N/A   Clear
10:35 PM 58.5 °F 51.1 °F 76% 30.11 in 10.0 mi Calm Calm - N/A   Clear
10:55 PM 58.1 °F 51.4 °F 78% 30.11 in 10.0 mi Calm Calm - N/A   Clear
11:16 PM 57.9 °F 50.2 °F 75% 30.11 in 10.0 mi Calm Calm - N/A   Clear
11:35 PM 56.8 °F 50.4 °F 79% 30.11 in 10.0 mi Calm Calm - N/A   Clear
11:56 PM 55.2 °F 50.0 °F 83% 30.11 in 10.0 mi Calm Calm - N/A   Clear